This is the latest recevied weather packets stored in our database for station/object AA7VG. If no packets are shown the sender has not sent any weather packets the latest 10 day(s).
| Time | Temp. | Humidity | Pressure | Rain* | Wind** | Luminosity | Snow |
|---|---|---|---|---|---|---|---|
| 1777458370 | 0.56° C | 88% | 1019.7 hPa | 0 mm | - | - | - |
| 1777458066 | 0.56° C | 89% | 1019.9 hPa | 0 mm | - | - | - |
| 1777457762 | 0.56° C | 91% | 1020.1 hPa | 0 mm | - | - | - |
| 1777457457 | 0.56° C | 91% | 1019.9 hPa | 0 mm | - | - | - |
| 1777457152 | 0.56° C | 92% | 1019.9 hPa | 0 mm | - | - | - |
| 1777456849 | 0.56° C | 93% | 1019.5 hPa | 0 mm | - | - | - |
| 1777456548 | 0.56° C | 93% | 1019.5 hPa | 0 mm | - | - | - |
| 1777456244 | 0.56° C | 93% | 1019.9 hPa | 0 mm | - | - | - |
| 1777455940 | 0.56° C | 93% | 1019.6 hPa | 0 mm | - | - | - |
| 1777455637 | 0.56° C | 93% | 1019.5 hPa | 0 mm | - | - | - |
| 1777455333 | 0.56° C | 93% | 1019.6 hPa | 0 mm | - | - | - |
| 1777455031 | 0.56° C | 93% | 1020 hPa | 0 mm | - | - | - |
| 1777454728 | 0.56° C | 93% | 1019.4 hPa | 0 mm | - | - | - |
| 1777454423 | 0° C | 92% | 1019.6 hPa | 0 mm | - | - | - |
| 1777454120 | 0.56° C | 91% | 1019.7 hPa | 0 mm | - | - | - |
| 1777453816 | 0.56° C | 91% | 1019.6 hPa | 0 mm | - | - | - |
| 1777453514 | 0.56° C | 90% | 1019.4 hPa | 0 mm | - | - | - |
| 1777453211 | 0.56° C | 90% | 1019.7 hPa | 0 mm | - | - | - |
| 1777452908 | 1.11° C | 89% | 1019.5 hPa | 0 mm | - | - | - |
| 1777452605 | 1.11° C | 89% | 1019.3 hPa | 0 mm | - | - | - |
| 1777452301 | 1.11° C | 88% | 1019.6 hPa | 0 mm | - | - | - |
| 1777451996 | 1.11° C | 87% | 1019.6 hPa | 0 mm | - | - | - |
| 1777451692 | 1.67° C | 86% | 1019.6 hPa | 0 mm | - | - | - |
| 1777451388 | 1.67° C | 85% | 1019.6 hPa | 0 mm | - | - | - |
| 1777451084 | 2.22° C | 85% | 1019.4 hPa | 0 mm | - | - | - |
* Rain latest hour (hover to see other rain measurements)
** Current wind speed in m/s (hover to see current wind gust speed)